GFSGBSN_500_temp_102.txt.gz
Temp
-4 -4 -4 -4 -4 -3 -3 -3 -3 -3 -3 -3 -3 -3 -3 -3 -3 -3 -3 -3 -3 -3 -3 -3 -4 -4 -4 -4 -3 -5 -5 -5 -4 -4 -4 -4 -5 -6 -5 -5 -5 -4 -5 -4 -4 -4 -4
-4 -4 -4 -4 -4 -4 -3 -3 -3 -3 -3 -3 -3 -3 -3 -3 -3 -3 -3 -4 -4 -4 -4 -4 -4 -4 -5 -5 -4 -5 -5 -5 -5 -5 -4 -4 -5 -6 -5 -5 -5 -5 -4 -5 -4 -4 -4
-4 -4 -4 -4 -4 -4 -4 -4 -3 -3 -3 -3 -3 -3 -3 -3 -3 -3 -3 -4 -4 -4 -4 -5 -5 -6 -6 -6 -6 -7 -6 -6 -5 -5 -5 -5 -5 -6 -6 -6 -5 -5 -4 -4 -4 -4 -4
-4 -4 -4 -4 -4 -5 -4 -4 -4 -4 -4 -3 -3 -3 -3 -3 -3 -3 -4 -4 -4 -5 -5 -6 -7 -7 -8 -8 -8 -7 -7 -7 -6 -6 -6 -5 -5 -6 -6 -5 -5 -5 -5 -4 -4 -4 -4
-4 -4 -4 -4 -5 -5 -5 -5 -4 -4 -4 -4 -3 -3 -3 -3 -3 -4 -4 -5 -5 -6 -7 -8 -8 -8 -8 -9 -8 -8 -8 -8 -7 -6 -6 -5 -5 -6 -6 -6 -6 -5 -5 -5 -4 -4 -5
-4 -4 -4 -5 -5 -5 -5 -4 -4 -4 -4 -4 -4 -4 -3 -3 -4 -5 -5 -6 -7 -8 -8 -8 -9 -9 -9 -9 -9 -9 -9 -8 -8 -7 -7 -7 -7 -7 -7 -6 -6 -6 -5 -5 -4 -4 -3
-4 -4 -4 -4 -4 -5 -5 -5 -5 -5 -4 -4 -4 -4 -4 -4 -5 -5 -6 -7 -8 -9 -9 -9 -9 -10 -10 -10 -9 -10 -9 -9 -9 -8 -7 -7 -7 -7 -7 -7 -6 -6 -5 -5 -4 -5 -5
-4 -4 -4 -4 -5 -5 -5 -5 -5 -5 -5 -5 -5 -5 -5 -5 -6 -7 -7 -8 -9 -9 -9 -10 -10 -10 -10 -10 -10 -10 -9 -9 -9 -8 -8 -8 -7 -8 -8 -8 -7 -6 -6 -6 -6 -5 -5
-4 -4 -5 -5 -5 -5 -5 -6 -5 -5 -5 -5 -5 -5 -6 -6 -7 -8 -9 -9 -10 -10 -10 -10 -11 -11 -11 -11 -10 -10 -10 -10 -9 -9 -9 -8 -8 -8 -8 -7 -7 -6 -7 -7 -5 -5 -5
-4 -5 -5 -5 -6 -6 -6 -6 -6 -6 -5 -5 -5 -6 -6 -7 -8 -9 -10 -10 -11 -11 -11 -12 -11 -12 -12 -11 -11 -11 -10 -10 -10 -9 -9 -9 -9 -9 -9 -9 -8 -9 -7 -6 -6 -6 -6
-5 -5 -5 -6 -6 -6 -7 -7 -6 -6 -6 -6 -6 -7 -7 -7 -9 -10 -10 -11 -11 -11 -13 -13 -13 -12 -12 -12 -13 -11 -11 -10 -10 -10 -9 -9 -9 -10 -10 -10 -9 -8 -7 -8 -8 -6 -6
-6 -6 -6 -6 -6 -6 -7 -7 -7 -6 -6 -6 -7 -7 -8 -9 -10 -11 -11 -11 -12 -12 -13 -14 -13 -13 -13 -13 -12 -12 -11 -11 -10 -10 -10 -9 -9 -9 -11 -11 -9 -8 -8 -8 -8 -7 -7
-6 -6 -6 -6 -7 -7 -7 -7 -7 -6 -6 -7 -7 -8 -8 -9 -10 -11 -12 -12 -12 -13 -14 -14 -14 -15 -15 -14 -14 -11 -11 -11 -10 -10 -9 -9 -9 -11 -11 -11 -10 -10 -9 -8 -8 -7 -7
-7 -7 -7 -7 -7 -7 -7 -8 -7 -7 -7 -7 -8 -8 -9 -10 -11 -12 -12 -13 -12 -14 -14 -14 -14 -15 -13 -14 -14 -14 -12 -11 -11 -10 -12 -10 -10 -9 -9 -9 -11 -10 -9 -9 -8 -8 -7
-7 -7 -7 -7 -7 -7 -8 -8 -7 -7 -7 -8 -8 -8 -9 -11 -12 -12 -12 -13 -13 -14 -14 -14 -14 -14 -14 -14 -14 -14 -13 -12 -12 -11 -12 -12 -12 -12 -10 -9 -10 -10 -9 -9 -9 -8 -7
-7 -7 -8 -8 -8 -8 -8 -8 -7 -7 -8 -8 -8 -9 -10 -12 -12 -13 -13 -13 -15 -13 -13 -13 -14 -14 -13 -13 -14 -14 -13 -13 -13 -13 -12 -12 -11 -11 -12 -10 -10 -11 -10 -9 -8 -8 -8
-8 -8 -8 -8 -8 -8 -8 -8 -7 -8 -8 -8 -9 -10 -11 -12 -13 -13 -13 -14 -14 -14 -14 -13 -14 -14 -14 -13 -14 -14 -14 -12 -13 -12 -12 -12 -12 -11 -12 -11 -10 -10 -10 -10 -10 -9 -8
-8 -8 -8 -8 -8 -8 -9 -8 -8 -8 -8 -9 -9 -10 -11 -13 -13 -13 -14 -13 -14 -14 -14 -14 -14 -14 -15 -14 -13 -13 -14 -13 -13 -13 -12 -12 -12 -12 -12 -12 -11 -11 -11 -11 -10 -9 -9
-8 -8 -9 -9 -9 -9 -9 -9 -9 -9 -9 -9 -10 -11 -12 -13 -13 -14 -14 -15 -14 -14 -14 -14 -14 -16 -15 -15 -15 -14 -14 -13 -14 -13 -12 -12 -11 -11 -12 -11 -12 -11 -11 -11 -11 -10 -9
-9 -9 -9 -9 -9 -9 -9 -9 -9 -9 -10 -10 -11 -12 -13 -13 -13 -14 -14 -15 -15 -14 -14 -14 -14 -15 -15 -16 -15 -14 -14 -14 -13 -14 -12 -12 -12 -12 -12 -11 -11 -12 -11 -11 -11 -10 -9
-9 -9 -9 -9 -9 -9 -10 -9 -9 -9 -10 -10 -11 -13 -14 -14 -14 -15 -15 -15 -15 -15 -15 -15 -15 -15 -15 -14 -15 -13 -15 -14 -14 -14 -13 -13 -13 -12 -12 -11 -11 -11 -12 -11 -11 -10 -10
-9 -9 -9 -9 -9 -9 -10 -10 -10 -10 -10 -11 -11 -12 -13 -15 -14 -14 -14 -14 -15 -16 -15 -16 -15 -15 -15 -16 -15 -14 -14 -13 -14 -14 -13 -13 -13 -13 -12 -11 -11 -11 -11 -11 -11 -11 -10
-9 -9 -10 -9 -9 -10 -10 -10 -10 -10 -11 -11 -10 -11 -13 -14 -14 -14 -15 -15 -15 -15 -15 -15 -15 -15 -15 -15 -15 -14 -14 -15 -13 -14 -14 -14 -13 -13 -12 -11 -12 -11 -12 -12 -11 -11 -11
-9 -9 -10 -10 -10 -10 -10 -10 -10 -11 -11 -11 -12 -13 -13 -14 -15 -16 -16 -14 -15 -15 -15 -15 -14 -14 -14 -15 -15 -15 -14 -14 -14 -14 -14 -14 -14 -13 -12 -12 -11 -11 -11 -10 -11 -12 -11
-9 -10 -10 -11 -11 -11 -11 -11 -11 -11 -12 -11 -11 -12 -14 -14 -14 -16 -14 -14 -15 -15 -15 -15 -14 -14 -14 -15 -15 -15 -16 -16 -14 -14 -13 -13 -14 -13 -12 -12 -11 -12 -11 -11 -11 -12 -11
-10 -11 -11 -11 -11 -11 -12 -12 -11 -12 -13 -12 -12 -13 -14 -15 -15 -16 -14 -14 -15 -15 -15 -15 -14 -14 -14 -14 -15 -16 -15 -14 -15 -15 -15 -15 -14 -14 -13 -13 -14 -12 -12 -12 -11 -11 -12
-11 -11 -12 -12 -12 -12 -13 -12 -12 -12 -13 -14 -13 -13 -14 -15 -15 -14 -14 -14 -15 -15 -15 -15 -14 -14 -14 -14 -15 -15 -15 -15 -15 -14 -15 -14 -14 -14 -14 -12 -12 -13 -12 -13 -13 -12 -12
-12 -12 -12 -12 -12 -12 -13 -13 -13 -13 -14 -14 -13 -14 -14 -14 -14 -14 -14 -14 -14 -14 -15 -15 -15 -14 -14 -14 -16 -16 -15 -15 -14 -15 -14 -15 -15 -15 -15 -13 -14 -14 -13 -13 -13 -13 -13
-12 -13 -13 -13 -13 -13 -13 -14 -14 -14 -14 -14 -14 -14 -14 -15 -14 -13 -14 -14 -14 -14 -14 -14 -14 -14 -14 -15 -15 -15 -15 -15 -15 -15 -14 -14 -14 -14 -13 -13 -14 -14 -14 -14 -14 -14 -13

GFSGBSN_500_temp_105.txt.gz
Temp
-4 -3 -3 -3 -3 -3 -3 -3 -3 -3 -3 -3 -3 -3 -3 -3 -3 -3 -3 -2 -3 -3 -3 -3 -2 -2 -2 -2 -2 -4 -4 -4 -4 -4 -4 -4 -4 -4 -5 -5 -4 -5 -4 -4 -5 -5 -5
-3 -3 -3 -3 -4 -4 -3 -3 -3 -3 -3 -3 -3 -3 -3 -3 -3 -3 -3 -3 -3 -3 -3 -3 -3 -3 -3 -3 -4 -5 -5 -5 -5 -4 -4 -4 -4 -4 -5 -5 -4 -6 -5 -4 -4 -5 -4
-4 -4 -4 -4 -4 -4 -4 -4 -4 -4 -4 -4 -3 -3 -3 -3 -3 -3 -3 -3 -3 -3 -3 -3 -4 -4 -4 -4 -5 -6 -6 -6 -5 -5 -5 -5 -4 -4 -5 -6 -5 -5 -5 -4 -5 -5 -5
-4 -4 -4 -4 -4 -4 -5 -5 -4 -4 -4 -4 -4 -3 -3 -3 -3 -3 -3 -3 -3 -3 -3 -4 -4 -5 -5 -6 -7 -7 -7 -7 -7 -6 -6 -5 -5 -5 -5 -5 -5 -5 -5 -5 -4 -4 -5
-3 -3 -3 -3 -4 -4 -4 -4 -4 -4 -4 -4 -4 -4 -4 -4 -3 -3 -3 -3 -3 -4 -4 -5 -6 -6 -7 -8 -8 -8 -8 -7 -8 -7 -7 -6 -5 -5 -6 -6 -5 -5 -5 -5 -5 -5 -5
-3 -3 -3 -3 -3 -4 -4 -4 -4 -4 -4 -4 -4 -5 -4 -4 -4 -4 -3 -3 -4 -4 -5 -6 -7 -7 -8 -8 -8 -9 -8 -8 -8 -8 -7 -7 -6 -6 -6 -6 -5 -6 -6 -6 -6 -5 -5
-3 -3 -4 -4 -4 -4 -4 -4 -4 -4 -5 -5 -5 -5 -4 -4 -4 -4 -4 -4 -5 -6 -6 -7 -8 -8 -8 -8 -9 -9 -10 -9 -9 -8 -8 -8 -7 -7 -8 -7 -7 -6 -6 -6 -5 -4 -5
-3 -4 -4 -4 -4 -4 -4 -4 -5 -5 -5 -5 -5 -5 -5 -5 -5 -5 -5 -6 -6 -7 -8 -8 -8 -9 -9 -9 -9 -10 -10 -10 -9 -9 -9 -8 -7 -8 -8 -9 -8 -6 -7 -7 -6 -5 -6
-4 -4 -4 -4 -4 -4 -4 -5 -5 -6 -6 -6 -6 -5 -5 -5 -6 -6 -6 -7 -8 -8 -8 -9 -9 -10 -10 -10 -10 -10 -10 -10 -10 -10 -9 -9 -9 -9 -9 -9 -9 -7 -7 -7 -7 -6 -6
-4 -4 -5 -5 -5 -5 -5 -5 -6 -7 -7 -6 -6 -6 -6 -6 -6 -7 -7 -8 -9 -9 -9 -9 -10 -10 -10 -11 -11 -11 -11 -11 -10 -10 -10 -9 -10 -9 -10 -10 -9 -7 -7 -7 -7 -6 -6
-5 -5 -5 -6 -6 -6 -6 -6 -6 -7 -7 -6 -6 -6 -7 -7 -7 -8 -8 -9 -10 -10 -11 -12 -12 -13 -12 -12 -11 -11 -11 -11 -10 -10 -10 -10 -10 -9 -10 -11 -9 -9 -8 -7 -7 -7 -6
-6 -6 -6 -6 -6 -6 -6 -6 -7 -7 -7 -7 -7 -7 -7 -7 -8 -9 -10 -10 -11 -12 -12 -14 -13 -12 -14 -13 -12 -11 -12 -11 -11 -10 -10 -10 -10 -11 -11 -12 -11 -9 -8 -8 -9 -7 -6
-6 -6 -7 -7 -7 -7 -7 -7 -7 -7 -7 -7 -7 -7 -8 -8 -9 -10 -11 -11 -12 -11 -13 -14 -14 -14 -14 -14 -13 -12 -12 -12 -11 -11 -10 -10 -10 -11 -12 -12 -12 -9 -9 -8 -8 -8 -7
-7 -7 -7 -7 -7 -7 -7 -7 -8 -8 -7 -7 -7 -8 -8 -8 -9 -10 -11 -12 -13 -13 -14 -14 -14 -14 -14 -14 -13 -13 -13 -12 -12 -11 -11 -11 -11 -10 -11 -11 -11 -8 -10 -9 -9 -8 -8
-7 -7 -7 -7 -7 -7 -7 -8 -8 -8 -7 -7 -8 -8 -8 -9 -10 -11 -12 -12 -12 -13 -13 -13 -13 -14 -14 -14 -14 -14 -14 -12 -12 -12 -11 -12 -12 -12 -11 -11 -10 -10 -10 -9 -10 -8 -7
-7 -7 -7 -8 -7 -8 -8 -8 -8 -8 -8 -8 -8 -8 -9 -10 -11 -12 -12 -13 -13 -13 -13 -13 -13 -14 -13 -13 -14 -14 -14 -13 -13 -13 -13 -12 -11 -12 -12 -12 -10 -11 -10 -9 -10 -7 -8
-8 -8 -8 -8 -8 -8 -8 -8 -8 -8 -8 -8 -9 -9 -10 -10 -11 -12 -13 -13 -14 -14 -13 -14 -14 -13 -14 -14 -14 -13 -14 -13 -13 -13 -13 -12 -11 -12 -12 -12 -11 -11 -9 -10 -10 -8 -9
-8 -8 -8 -8 -8 -8 -8 -8 -8 -9 -9 -9 -9 -9 -10 -11 -12 -12 -13 -13 -14 -14 -14 -14 -14 -14 -14 -15 -14 -14 -14 -13 -13 -13 -12 -12 -12 -12 -12 -12 -12 -11 -10 -10 -10 -9 -10
-8 -8 -8 -9 -9 -8 -8 -9 -9 -9 -9 -9 -9 -10 -11 -11 -12 -13 -13 -14 -14 -15 -14 -14 -14 -14 -14 -15 -15 -14 -14 -13 -13 -13 -13 -12 -12 -12 -12 -12 -12 -12 -11 -10 -10 -9 -9
-8 -9 -9 -9 -9 -9 -9 -9 -9 -9 -9 -10 -10 -10 -11 -12 -13 -14 -14 -14 -15 -15 -14 -14 -14 -14 -15 -16 -16 -15 -14 -14 -13 -14 -13 -13 -13 -12 -12 -11 -11 -12 -12 -11 -10 -9 -9
-9 -9 -9 -9 -9 -9 -9 -9 -9 -10 -10 -10 -10 -10 -10 -10 -13 -14 -14 -15 -14 -15 -16 -14 -14 -15 -15 -16 -15 -15 -14 -14 -13 -13 -14 -13 -13 -13 -12 -11 -11 -11 -12 -12 -11 -9 -10
-9 -9 -9 -9 -9 -9 -9 -9 -9 -10 -10 -10 -11 -10 -12 -12 -12 -14 -14 -14 -15 -15 -14 -15 -14 -15 -15 -15 -15 -15 -14 -15 -15 -14 -14 -13 -13 -13 -12 -11 -11 -11 -12 -12 -12 -10 -11
-9 -9 -9 -10 -9 -10 -10 -10 -10 -10 -11 -11 -11 -12 -13 -13 -13 -14 -15 -15 -14 -14 -15 -15 -14 -14 -14 -14 -14 -15 -14 -14 -14 -14 -14 -13 -13 -13 -13 -12 -11 -12 -11 -12 -12 -11 -12
-9 -9 -9 -9 -9 -10 -10 -10 -10 -11 -11 -11 -11 -12 -13 -13 -13 -14 -15 -15 -14 -14 -15 -14 -14 -14 -14 -14 -15 -15 -15 -15 -14 -14 -14 -14 -13 -12 -12 -12 -12 -11 -11 -11 -11 -11 -11
-10 -10 -10 -10 -10 -10 -10 -11 -11 -11 -11 -12 -12 -13 -14 -14 -14 -14 -14 -15 -14 -15 -14 -14 -14 -14 -14 -14 -15 -15 -15 -15 -15 -15 -14 -14 -13 -13 -13 -13 -12 -12 -11 -11 -11 -11 -10
-11 -11 -11 -11 -11 -11 -11 -11 -12 -12 -12 -13 -13 -14 -14 -14 -15 -14 -15 -15 -14 -15 -14 -14 -14 -14 -14 -14 -14 -15 -15 -15 -15 -15 -15 -14 -13 -14 -14 -14 -13 -12 -11 -12 -11 -11 -9
-12 -12 -12 -11 -11 -12 -12 -12 -13 -13 -13 -14 -14 -14 -14 -14 -16 -15 -14 -13 -14 -14 -14 -14 -14 -14 -14 -14 -14 -14 -15 -14 -14 -14 -14 -15 -14 -15 -14 -15 -13 -13 -12 -11 -12 -11 -10
-12 -12 -12 -12 -12 -12 -13 -13 -13 -14 -14 -14 -15 -15 -14 -15 -15 -15 -14 -14 -13 -14 -13 -14 -14 -14 -14 -14 -14 -14 -15 -14 -14 -14 -15 -14 -14 -15 -14 -14 -14 -13 -13 -12 -12 -12 -11
-13 -13 -13 -13 -13 -13 -13 -13 -13 -14 -14 -14 -14 -15 -15 -14 -14 -15 -14 -14 -14 -14 -13 -14 -14 -14 -14 -14 -14 -14 -14 -14 -15 -14 -14 -14 -14 -14 -13 -13 -14 -14 -14 -14 -13 -12 -12

GFSGBSN_500_temp_108.txt.gz
Temp
-3 -3 -3 -3 -3 -3 -3 -3 -3 -3 -3 -3 -3 -3 -3 -3 -3 -3 -3 -3 -2 -2 -2 -2 -2 -2 -2 -2 -3 -4 -4 -4 -4 -5 -4 -4 -4 -4 -5 -6 -5 -5 -6 -5 -5 -5 -6
-3 -3 -3 -3 -3 -3 -3 -4 -4 -3 -4 -4 -4 -4 -3 -3 -3 -3 -3 -3 -2 -2 -2 -2 -2 -2 -2 -2 -4 -4 -4 -4 -5 -5 -5 -5 -5 -5 -5 -6 -5 -6 -4 -5 -5 -5 -5
-3 -3 -3 -3 -4 -3 -4 -4 -4 -4 -4 -4 -4 -4 -4 -4 -3 -3 -3 -3 -3 -3 -2 -2 -3 -3 -3 -3 -4 -5 -4 -5 -5 -5 -6 -6 -5 -4 -5 -5 -5 -6 -4 -5 -5 -5 -5
-3 -3 -3 -3 -3 -3 -3 -4 -4 -4 -4 -4 -4 -4 -4 -4 -4 -4 -4 -3 -3 -3 -3 -3 -3 -3 -3 -3 -4 -5 -5 -6 -6 -7 -6 -6 -5 -5 -5 -5 -6 -5 -5 -5 -4 -5 -5
-3 -3 -3 -3 -3 -3 -4 -4 -4 -4 -4 -4 -4 -4 -4 -4 -5 -4 -4 -4 -3 -3 -3 -3 -4 -4 -4 -5 -5 -6 -7 -7 -7 -7 -7 -7 -6 -6 -6 -6 -6 -6 -6 -5 -4 -5 -5
-3 -3 -3 -3 -3 -3 -3 -4 -4 -4 -4 -4 -4 -5 -5 -5 -5 -4 -4 -4 -4 -4 -4 -4 -4 -5 -5 -6 -6 -7 -8 -9 -8 -8 -8 -7 -7 -7 -6 -7 -7 -7 -7 -6 -5 -5 -5
-3 -3 -3 -3 -3 -3 -3 -3 -4 -4 -4 -5 -5 -5 -6 -5 -5 -4 -4 -4 -4 -5 -5 -5 -5 -6 -7 -7 -7 -7 -8 -8 -9 -9 -9 -8 -8 -8 -9 -9 -8 -7 -7 -6 -6 -5 -5
-4 -4 -4 -4 -4 -4 -4 -4 -4 -5 -5 -6 -6 -6 -6 -5 -5 -5 -5 -5 -5 -6 -6 -7 -6 -7 -7 -7 -8 -8 -8 -9 -9 -10 -10 -9 -8 -9 -10 -10 -9 -7 -7 -7 -7 -7 -6
-4 -4 -4 -4 -5 -5 -5 -5 -5 -5 -5 -6 -7 -7 -6 -6 -6 -6 -6 -6 -6 -7 -7 -8 -8 -8 -9 -8 -8 -9 -9 -10 -10 -10 -10 -9 -10 -10 -10 -10 -9 -8 -8 -8 -8 -7 -6
-5 -5 -5 -5 -5 -5 -6 -6 -6 -6 -6 -6 -7 -7 -6 -6 -6 -6 -7 -7 -7 -8 -8 -8 -8 -9 -8 -9 -10 -10 -10 -10 -11 -11 -11 -10 -11 -10 -10 -10 -10 -9 -9 -8 -7 -7 -6
-5 -5 -5 -6 -6 -6 -6 -6 -6 -6 -6 -7 -7 -7 -7 -7 -7 -7 -7 -8 -9 -9 -9 -9 -10 -11 -10 -10 -11 -11 -11 -11 -11 -11 -10 -11 -11 -12 -11 -11 -10 -10 -9 -8 -7 -7 -7
-5 -5 -6 -6 -6 -6 -7 -7 -7 -7 -7 -8 -7 -7 -7 -7 -8 -8 -8 -9 -10 -10 -10 -11 -12 -12 -13 -12 -12 -12 -12 -12 -12 -11 -11 -11 -11 -11 -11 -11 -11 -10 -9 -8 -8 -8 -7
-6 -6 -6 -7 -7 -7 -7 -7 -7 -7 -8 -8 -7 -7 -7 -8 -8 -8 -9 -10 -11 -12 -12 -12 -14 -13 -13 -13 -12 -13 -13 -13 -12 -12 -12 -11 -11 -12 -11 -11 -11 -11 -10 -9 -8 -8 -8
-6 -6 -7 -7 -7 -7 -7 -7 -7 -8 -8 -8 -8 -8 -8 -8 -8 -9 -10 -11 -12 -11 -11 -13 -14 -14 -14 -13 -14 -14 -13 -13 -12 -12 -12 -11 -11 -12 -12 -12 -11 -10 -11 -10 -10 -9 -8
-7 -7 -7 -7 -7 -7 -8 -8 -8 -8 -8 -8 -8 -8 -8 -8 -9 -10 -11 -12 -13 -13 -12 -13 -14 -13 -13 -14 -14 -14 -13 -14 -13 -13 -13 -12 -12 -12 -13 -12 -12 -11 -10 -10 -9 -9 -8
-7 -7 -7 -7 -8 -8 -8 -8 -8 -8 -8 -8 -8 -8 -8 -8 -9 -11 -11 -12 -12 -12 -12 -13 -13 -13 -13 -14 -14 -14 -14 -14 -14 -14 -12 -12 -12 -12 -12 -12 -12 -11 -11 -10 -10 -9 -8
-7 -8 -8 -8 -8 -8 -8 -8 -8 -8 -8 -8 -9 -8 -9 -9 -10 -11 -11 -12 -13 -13 -13 -13 -14 -14 -14 -13 -14 -14 -14 -13 -14 -14 -13 -13 -12 -12 -12 -12 -11 -11 -10 -10 -10 -9 -8
-8 -8 -8 -8 -8 -8 -8 -9 -8 -8 -9 -9 -9 -9 -9 -9 -10 -10 -12 -13 -14 -14 -13 -13 -14 -14 -14 -14 -13 -13 -14 -14 -13 -14 -13 -13 -12 -12 -12 -12 -11 -11 -11 -11 -10 -10 -10
-8 -8 -8 -8 -9 -9 -9 -9 -9 -9 -9 -9 -9 -10 -9 -9 -11 -12 -12 -13 -13 -14 -14 -14 -14 -14 -14 -14 -14 -14 -14 -14 -14 -13 -13 -13 -12 -12 -13 -12 -12 -12 -12 -11 -10 -11 -10
-8 -8 -8 -9 -9 -9 -9 -9 -9 -9 -9 -9 -9 -10 -10 -10 -11 -12 -14 -14 -13 -13 -15 -13 -15 -14 -15 -14 -14 -14 -15 -14 -14 -14 -13 -13 -13 -12 -12 -12 -11 -12 -12 -12 -11 -11 -11
-9 -9 -9 -9 -9 -9 -9 -9 -9 -9 -9 -9 -10 -10 -11 -11 -12 -12 -12 -14 -14 -15 -15 -14 -14 -14 -15 -14 -14 -14 -15 -15 -15 -14 -14 -13 -13 -13 -12 -12 -11 -11 -11 -11 -11 -10 -10
-9 -9 -9 -9 -9 -9 -9 -9 -9 -10 -10 -10 -10 -11 -11 -12 -12 -12 -12 -13 -14 -15 -15 -15 -15 -15 -14 -14 -14 -14 -15 -15 -14 -14 -15 -14 -13 -13 -12 -12 -12 -12 -11 -11 -11 -10 -9
-10 -10 -9 -9 -10 -9 -9 -9 -10 -10 -10 -10 -10 -11 -11 -12 -13 -14 -14 -14 -14 -14 -14 -15 -15 -15 -14 -14 -15 -15 -15 -15 -15 -15 -15 -14 -14 -13 -12 -12 -12 -12 -12 -11 -11 -10 -10
-11 -10 -10 -10 -10 -10 -10 -10 -10 -10 -10 -11 -11 -12 -12 -12 -13 -14 -14 -14 -13 -13 -15 -15 -14 -15 -14 -14 -14 -14 -14 -14 -14 -14 -14 -13 -13 -13 -13 -13 -13 -13 -12 -12 -11 -10 -10
-12 -12 -11 -11 -11 -11 -11 -10 -10 -11 -11 -11 -12 -12 -12 -13 -15 -15 -15 -14 -13 -14 -14 -14 -15 -14 -14 -14 -14 -15 -15 -15 -14 -13 -13 -13 -13 -13 -13 -13 -12 -12 -12 -12 -11 -11 -11
-13 -13 -13 -12 -12 -11 -11 -11 -11 -11 -12 -12 -12 -13 -13 -13 -15 -15 -16 -15 -14 -14 -14 -14 -14 -14 -14 -14 -14 -15 -15 -15 -14 -14 -14 -13 -13 -13 -13 -13 -13 -13 -12 -12 -12 -12 -11
-13 -13 -13 -13 -12 -12 -12 -12 -12 -12 -12 -13 -13 -13 -14 -15 -15 -15 -16 -15 -14 -13 -14 -14 -15 -14 -13 -14 -14 -15 -15 -14 -14 -14 -14 -14 -14 -13 -13 -13 -13 -13 -13 -12 -12 -11 -11
-13 -13 -13 -13 -13 -13 -13 -12 -12 -13 -13 -13 -14 -14 -14 -15 -15 -15 -16 -15 -14 -14 -14 -14 -14 -14 -13 -13 -14 -15 -15 -14 -14 -14 -14 -14 -14 -14 -14 -14 -14 -14 -13 -13 -12 -12 -12
-14 -14 -14 -14 -14 -14 -13 -13 -14 -14 -14 -14 -14 -15 -15 -14 -15 -15 -15 -15 -15 -14 -14 -14 -15 -14 -14 -14 -14 -14 -14 -14 -14 -14 -14 -14 -14 -14 -15 -15 -14 -14 -14 -13 -13 -12 -12

GFSGBSN_500_temp_111.txt.gz
Temp
-3 -3 -3 -3 -3 -3 -3 -3 -4 -4 -4 -4 -4 -4 -4 -3 -3 -3 -3 -3 -3 -3 -2 -2 -2 -2 -2 -2 -3 -3 -4 -4 -4 -4 -4 -4 -5 -5 -5 -4 -4 -6 -5 -5 -5 -5 -6
-3 -3 -3 -3 -3 -3 -3 -3 -4 -4 -4 -4 -4 -4 -4 -4 -4 -4 -3 -3 -3 -3 -3 -2 -2 -2 -2 -2 -3 -4 -4 -4 -4 -5 -5 -5 -4 -5 -5 -4 -4 -5 -5 -5 -5 -5 -5
-3 -3 -3 -3 -3 -3 -3 -3 -3 -3 -4 -4 -5 -5 -4 -4 -4 -4 -4 -4 -4 -4 -3 -3 -3 -2 -3 -3 -4 -4 -3 -4 -5 -5 -6 -5 -4 -5 -5 -5 -4 -5 -5 -5 -5 -6 -5
-3 -3 -3 -3 -3 -3 -3 -3 -3 -4 -4 -4 -4 -4 -4 -4 -4 -4 -5 -5 -4 -4 -4 -3 -3 -3 -3 -3 -3 -4 -4 -5 -5 -6 -6 -5 -4 -5 -6 -5 -4 -6 -6 -6 -5 -5 -5
-4 -4 -3 -3 -3 -3 -3 -3 -3 -3 -4 -4 -4 -4 -4 -4 -5 -5 -5 -5 -4 -4 -4 -3 -3 -3 -3 -4 -4 -5 -4 -5 -6 -6 -6 -5 -5 -5 -6 -6 -6 -7 -6 -6 -6 -5 -5
-4 -4 -3 -3 -3 -4 -4 -3 -3 -3 -3 -4 -4 -4 -5 -5 -5 -5 -5 -5 -4 -4 -4 -4 -3 -4 -4 -4 -5 -6 -6 -6 -7 -7 -7 -7 -7 -6 -6 -7 -7 -8 -7 -7 -6 -6 -6
-4 -4 -4 -4 -4 -4 -4 -4 -4 -4 -4 -4 -4 -5 -5 -6 -6 -6 -5 -5 -5 -5 -5 -4 -4 -4 -5 -5 -5 -6 -7 -7 -7 -8 -8 -8 -8 -8 -8 -8 -9 -8 -7 -7 -7 -7 -6
-4 -4 -4 -4 -4 -4 -4 -4 -4 -5 -5 -5 -5 -5 -6 -7 -7 -6 -6 -6 -6 -6 -5 -5 -5 -5 -6 -6 -6 -7 -7 -8 -8 -8 -9 -9 -9 -9 -9 -9 -10 -8 -9 -8 -8 -7 -6
-5 -5 -5 -5 -5 -5 -5 -5 -5 -6 -6 -6 -6 -6 -6 -7 -7 -6 -6 -6 -6 -6 -6 -6 -6 -6 -7 -7 -7 -7 -7 -8 -9 -9 -9 -9 -10 -10 -10 -9 -10 -9 -9 -8 -8 -8 -7
-5 -5 -5 -5 -5 -5 -5 -6 -6 -6 -6 -6 -6 -7 -7 -7 -7 -7 -7 -6 -7 -7 -7 -8 -8 -8 -8 -8 -8 -8 -9 -9 -10 -10 -10 -10 -11 -10 -10 -10 -11 -9 -10 -9 -9 -8 -8
-5 -5 -5 -5 -6 -6 -6 -6 -6 -6 -7 -7 -7 -7 -8 -7 -7 -7 -7 -7 -7 -7 -9 -9 -9 -9 -9 -9 -9 -9 -9 -10 -10 -11 -11 -11 -11 -11 -10 -11 -11 -10 -10 -10 -9 -8 -8
-6 -6 -6 -6 -6 -6 -7 -7 -7 -7 -7 -8 -8 -8 -8 -7 -7 -8 -7 -7 -8 -9 -9 -10 -10 -10 -10 -11 -11 -11 -11 -11 -11 -11 -12 -12 -11 -11 -11 -12 -11 -11 -11 -10 -9 -8 -7
-6 -6 -6 -6 -6 -7 -7 -7 -7 -7 -8 -8 -8 -8 -8 -8 -8 -8 -8 -8 -9 -9 -10 -10 -11 -11 -11 -12 -13 -13 -13 -12 -12 -12 -12 -12 -12 -12 -12 -12 -11 -11 -10 -10 -9 -9 -8
-6 -6 -6 -6 -7 -7 -7 -7 -7 -7 -8 -8 -8 -8 -8 -8 -8 -8 -8 -9 -9 -10 -11 -11 -11 -11 -12 -12 -13 -13 -13 -13 -12 -13 -13 -12 -12 -12 -12 -12 -12 -11 -10 -10 -9 -9 -8
-7 -7 -7 -7 -7 -7 -7 -7 -8 -8 -8 -8 -8 -8 -8 -8 -8 -9 -9 -9 -9 -11 -12 -12 -12 -12 -13 -14 -13 -13 -13 -13 -12 -13 -13 -13 -13 -12 -12 -13 -12 -12 -11 -11 -10 -9 -8
-7 -7 -7 -7 -7 -7 -8 -8 -8 -8 -8 -8 -8 -8 -8 -9 -9 -9 -9 -9 -10 -11 -12 -12 -13 -12 -13 -14 -14 -13 -13 -14 -13 -13 -13 -13 -13 -13 -12 -12 -12 -12 -12 -11 -11 -9 -8
-7 -7 -7 -7 -8 -8 -8 -8 -8 -8 -8 -8 -8 -8 -9 -9 -9 -9 -10 -10 -11 -11 -12 -13 -12 -13 -12 -13 -14 -14 -14 -14 -14 -14 -13 -13 -13 -13 -13 -12 -12 -11 -11 -11 -11 -10 -8
-8 -8 -8 -8 -8 -8 -8 -9 -9 -9 -9 -9 -8 -9 -9 -9 -9 -10 -10 -11 -12 -12 -12 -13 -13 -13 -13 -13 -13 -14 -14 -14 -14 -14 -13 -13 -13 -13 -13 -13 -12 -12 -12 -12 -12 -10 -9
-8 -8 -8 -8 -8 -8 -8 -9 -9 -9 -9 -9 -9 -9 -9 -10 -10 -10 -11 -12 -12 -13 -13 -13 -13 -13 -13 -14 -14 -14 -14 -15 -15 -14 -14 -13 -13 -13 -13 -13 -12 -13 -12 -11 -11 -10 -9
-9 -9 -8 -8 -8 -8 -8 -9 -9 -9 -9 -9 -9 -9 -10 -10 -10 -11 -11 -12 -12 -13 -14 -13 -13 -13 -14 -14 -14 -14 -15 -15 -14 -14 -14 -14 -13 -13 -13 -12 -12 -12 -12 -12 -11 -11 -9
-9 -9 -9 -9 -9 -9 -9 -9 -9 -9 -9 -10 -9 -10 -10 -10 -11 -11 -11 -12 -12 -13 -13 -13 -14 -14 -14 -14 -14 -14 -14 -14 -14 -14 -14 -14 -13 -13 -13 -12 -12 -12 -12 -12 -11 -11 -9
-10 -10 -10 -9 -9 -9 -9 -9 -9 -9 -9 -10 -10 -10 -11 -11 -11 -12 -12 -13 -13 -13 -13 -13 -14 -14 -14 -14 -15 -14 -14 -14 -15 -15 -15 -14 -14 -13 -13 -12 -12 -12 -11 -11 -10 -10 -9
-11 -11 -11 -10 -10 -10 -10 -10 -9 -10 -10 -10 -10 -10 -11 -12 -11 -12 -13 -13 -13 -13 -14 -15 -15 -15 -14 -14 -14 -14 -14 -14 -15 -16 -15 -14 -13 -14 -13 -12 -12 -11 -11 -11 -10 -10 -10
-12 -12 -12 -11 -11 -11 -11 -10 -10 -10 -10 -10 -10 -11 -11 -12 -12 -13 -13 -13 -14 -14 -14 -15 -15 -15 -14 -14 -14 -14 -14 -15 -15 -15 -15 -15 -15 -14 -13 -13 -12 -12 -11 -11 -11 -10 -10
-13 -13 -13 -13 -12 -12 -12 -11 -11 -11 -11 -11 -11 -11 -12 -13 -13 -13 -14 -14 -14 -15 -15 -15 -14 -14 -14 -14 -14 -14 -14 -15 -15 -15 -15 -14 -14 -14 -13 -14 -12 -12 -12 -11 -12 -10 -10
-14 -14 -14 -14 -14 -13 -13 -13 -12 -11 -11 -11 -11 -12 -12 -13 -13 -14 -14 -15 -14 -15 -15 -14 -14 -14 -14 -14 -14 -14 -14 -15 -14 -15 -15 -14 -14 -14 -14 -13 -12 -12 -13 -13 -12 -12 -11
-16 -16 -15 -14 -13 -13 -13 -13 -12 -12 -12 -12 -12 -13 -13 -14 -14 -14 -15 -15 -15 -15 -15 -15 -15 -14 -14 -14 -14 -14 -14 -14 -14 -14 -14 -14 -13 -14 -14 -13 -13 -12 -12 -12 -12 -12 -12
-16 -15 -14 -14 -14 -14 -13 -13 -13 -13 -13 -13 -13 -13 -14 -14 -14 -14 -15 -15 -15 -15 -15 -15 -15 -14 -14 -14 -14 -14 -14 -14 -14 -15 -15 -15 -14 -14 -14 -14 -13 -13 -13 -12 -12 -12 -12
-16 -15 -15 -14 -14 -14 -14 -14 -14 -14 -14 -13 -13 -14 -14 -14 -15 -15 -15 -15 -15 -14 -14 -15 -15 -14 -15 -14 -14 -14 -14 -14 -15 -14 -14 -15 -14 -14 -15 -14 -14 -14 -13 -13 -13 -13 -13

GFSGBSN_500_temp_114.txt.gz
Temp
-3 -3 -3 -3 -3 -3 -3 -4 -4 -4 -4 -4 -4 -4 -4 -4 -4 -4 -4 -3 -3 -3 -3 -3 -2 -2 -2 -2 -3 -3 -3 -3 -3 -3 -4 -4 -5 -5 -4 -4 -4 -6 -6 -6 -6 -6 -5
-3 -3 -3 -3 -3 -3 -3 -3 -3 -3 -3 -4 -4 -4 -4 -4 -4 -4 -4 -4 -4 -4 -3 -3 -3 -3 -2 -2 -3 -3 -3 -3 -3 -3 -3 -4 -4 -4 -5 -4 -4 -5 -6 -6 -6 -6 -6
-4 -4 -4 -4 -4 -4 -3 -3 -3 -3 -3 -4 -4 -4 -4 -4 -4 -4 -4 -4 -4 -4 -4 -4 -3 -3 -3 -3 -3 -3 -3 -3 -3 -3 -3 -3 -4 -4 -5 -5 -5 -6 -6 -6 -6 -5 -6
-4 -4 -4 -4 -4 -3 -3 -4 -4 -4 -4 -4 -4 -4 -4 -4 -4 -4 -5 -5 -5 -5 -5 -5 -4 -3 -3 -3 -3 -3 -3 -3 -4 -3 -4 -4 -4 -5 -6 -5 -5 -6 -6 -6 -6 -6 -6
-4 -4 -4 -4 -4 -4 -4 -3 -3 -3 -3 -3 -4 -4 -4 -4 -4 -5 -5 -6 -6 -5 -5 -4 -4 -4 -4 -4 -4 -3 -3 -3 -4 -4 -4 -4 -5 -6 -6 -7 -5 -6 -6 -6 -6 -6 -6
-4 -4 -4 -4 -4 -4 -4 -4 -4 -4 -4 -4 -4 -4 -4 -5 -5 -5 -6 -6 -6 -5 -5 -4 -4 -4 -4 -4 -4 -4 -4 -4 -4 -4 -5 -5 -6 -6 -7 -7 -7 -6 -6 -6 -6 -6 -5
-4 -4 -4 -4 -4 -4 -4 -4 -4 -4 -4 -4 -5 -5 -5 -5 -6 -6 -7 -7 -6 -6 -5 -5 -5 -4 -4 -4 -5 -5 -5 -5 -6 -6 -6 -6 -7 -8 -8 -8 -8 -7 -6 -6 -6 -6 -7
-5 -5 -5 -5 -5 -5 -5 -4 -4 -5 -5 -5 -5 -6 -6 -6 -6 -7 -7 -7 -6 -6 -5 -5 -5 -5 -5 -5 -5 -6 -6 -6 -6 -7 -7 -8 -8 -9 -9 -9 -9 -8 -7 -6 -6 -7 -6
-5 -5 -5 -5 -5 -5 -5 -5 -5 -5 -6 -6 -6 -6 -6 -7 -7 -7 -7 -7 -7 -6 -6 -6 -6 -5 -5 -5 -5 -6 -6 -7 -7 -7 -8 -9 -10 -10 -10 -9 -10 -9 -8 -7 -7 -7 -7
-5 -5 -5 -5 -5 -5 -5 -5 -6 -6 -6 -7 -7 -7 -7 -8 -8 -8 -7 -7 -7 -7 -7 -7 -7 -6 -6 -7 -6 -7 -7 -7 -8 -8 -9 -10 -10 -10 -10 -10 -10 -10 -9 -9 -8 -8 -8
-6 -6 -6 -6 -6 -5 -6 -6 -6 -7 -7 -7 -7 -7 -8 -8 -8 -7 -8 -8 -8 -8 -8 -8 -7 -8 -8 -7 -7 -7 -7 -7 -8 -9 -9 -10 -10 -10 -10 -10 -11 -10 -10 -9 -9 -9 -9
-6 -6 -6 -6 -6 -6 -6 -6 -6 -7 -7 -7 -7 -8 -8 -8 -8 -8 -7 -8 -8 -8 -9 -8 -9 -9 -9 -8 -8 -8 -8 -9 -9 -10 -11 -11 -11 -11 -11 -11 -11 -11 -10 -10 -11 -9 -9
-6 -6 -6 -6 -6 -6 -6 -6 -7 -7 -7 -8 -8 -8 -8 -8 -8 -8 -8 -8 -9 -9 -9 -9 -10 -10 -10 -10 -10 -10 -10 -10 -10 -11 -12 -12 -12 -12 -12 -12 -11 -11 -10 -10 -10 -9 -9
-7 -7 -6 -6 -6 -7 -7 -7 -7 -7 -7 -8 -8 -8 -8 -8 -8 -8 -8 -8 -9 -9 -9 -10 -10 -10 -11 -11 -13 -12 -12 -12 -12 -11 -12 -13 -13 -12 -12 -12 -12 -12 -12 -11 -11 -10 -8
-7 -7 -7 -7 -7 -7 -7 -7 -7 -8 -8 -8 -8 -8 -8 -8 -8 -8 -8 -8 -10 -10 -10 -11 -11 -11 -11 -11 -12 -13 -13 -13 -12 -12 -12 -13 -13 -13 -13 -13 -13 -12 -11 -11 -11 -9 -9
-7 -7 -7 -7 -7 -7 -7 -8 -7 -8 -8 -8 -8 -9 -8 -9 -9 -9 -8 -8 -10 -10 -11 -12 -12 -12 -11 -11 -11 -12 -13 -13 -13 -13 -12 -13 -13 -13 -13 -13 -12 -12 -12 -11 -11 -10 -10
-8 -8 -7 -8 -8 -8 -8 -8 -8 -8 -8 -8 -8 -9 -9 -9 -9 -9 -9 -9 -10 -10 -11 -12 -12 -12 -12 -12 -13 -13 -13 -13 -14 -14 -13 -13 -13 -13 -13 -13 -13 -12 -12 -11 -11 -11 -10
-8 -8 -8 -8 -8 -8 -8 -8 -8 -8 -8 -8 -9 -9 -9 -9 -9 -9 -9 -9 -10 -10 -11 -12 -13 -13 -13 -12 -12 -14 -14 -14 -14 -14 -14 -14 -14 -14 -14 -13 -13 -13 -12 -12 -11 -11 -10
-9 -9 -8 -8 -8 -8 -8 -8 -8 -8 -9 -9 -9 -9 -9 -9 -9 -9 -9 -9 -10 -10 -11 -12 -12 -14 -13 -13 -13 -13 -14 -14 -14 -14 -13 -14 -14 -14 -14 -13 -13 -13 -12 -12 -11 -11 -10
-10 -10 -9 -9 -9 -9 -9 -9 -9 -9 -9 -9 -9 -9 -10 -10 -9 -10 -10 -10 -11 -11 -11 -12 -12 -14 -13 -13 -14 -14 -14 -13 -13 -14 -14 -14 -14 -14 -14 -13 -13 -13 -12 -12 -11 -11 -11
-11 -11 -11 -11 -10 -10 -9 -9 -9 -9 -9 -9 -9 -9 -10 -10 -10 -10 -10 -11 -11 -12 -12 -13 -13 -14 -13 -14 -14 -14 -14 -14 -14 -14 -14 -14 -14 -14 -14 -14 -13 -12 -12 -12 -11 -11 -12
-12 -12 -11 -11 -11 -11 -11 -11 -10 -10 -9 -9 -9 -9 -10 -10 -10 -11 -10 -11 -12 -13 -13 -13 -14 -14 -13 -14 -14 -14 -14 -14 -14 -14 -14 -15 -15 -14 -14 -14 -13 -13 -12 -12 -11 -10 -11
-13 -13 -13 -12 -12 -12 -11 -11 -11 -11 -10 -10 -9 -10 -10 -11 -10 -11 -11 -11 -12 -13 -13 -13 -14 -14 -14 -14 -14 -14 -14 -14 -14 -15 -15 -16 -16 -15 -14 -14 -14 -12 -13 -12 -11 -11 -11
-14 -14 -13 -13 -13 -12 -12 -12 -11 -11 -11 -11 -11 -10 -11 -11 -11 -11 -12 -12 -13 -14 -14 -14 -14 -14 -14 -14 -14 -14 -14 -14 -14 -15 -15 -16 -15 -15 -14 -14 -14 -13 -13 -12 -12 -11 -11
-15 -15 -15 -14 -14 -13 -13 -13 -12 -12 -12 -12 -12 -11 -11 -12 -12 -12 -12 -13 -13 -14 -14 -15 -15 -14 -15 -14 -14 -14 -14 -15 -15 -15 -15 -15 -15 -15 -14 -14 -13 -13 -13 -12 -12 -11 -11
-15 -16 -15 -15 -14 -14 -15 -14 -14 -13 -14 -13 -13 -13 -13 -13 -14 -14 -13 -13 -13 -15 -15 -15 -15 -15 -15 -15 -14 -14 -14 -14 -15 -15 -15 -15 -15 -14 -15 -14 -13 -13 -12 -13 -12 -12 -12
-16 -17 -16 -16 -15 -16 -16 -16 -15 -15 -14 -14 -13 -13 -13 -14 -15 -15 -14 -14 -14 -14 -15 -14 -15 -15 -15 -15 -14 -14 -14 -14 -14 -14 -14 -14 -14 -14 -14 -14 -14 -14 -13 -13 -13 -13 -12
-16 -16 -16 -16 -16 -16 -15 -15 -14 -14 -14 -14 -14 -13 -14 -14 -15 -15 -14 -14 -14 -14 -15 -14 -15 -16 -15 -15 -14 -14 -14 -14 -14 -14 -14 -14 -14 -14 -14 -14 -14 -14 -14 -14 -14 -13 -13
-16 -16 -16 -16 -16 -16 -15 -15 -14 -14 -14 -14 -14 -13 -13 -14 -15 -15 -14 -15 -14 -15 -15 -15 -15 -15 -15 -15 -14 -14 -14 -14 -14 -14 -14 -14 -14 -14 -14 -14 -14 -14 -14 -13 -14 -14 -13

GFSGBSN_500_temp_117.txt.gz
Temp
-4 -4 -4 -3 -3 -3 -3 -3 -3 -3 -3 -3 -4 -4 -4 -4 -4 -4 -4 -4 -4 -3 -3 -3 -3 -3 -2 -3 -3 -3 -3 -3 -3 -3 -4 -4 -4 -4 -4 -4 -4 -5 -6 -5 -6 -6 -5
-4 -4 -4 -4 -4 -3 -3 -3 -3 -3 -3 -4 -4 -4 -4 -4 -4 -4 -4 -4 -4 -4 -4 -4 -3 -3 -3 -3 -3 -3 -3 -3 -3 -3 -3 -3 -4 -5 -5 -5 -5 -5 -6 -6 -6 -6 -6
-4 -4 -4 -4 -4 -4 -4 -4 -4 -4 -4 -4 -4 -4 -4 -4 -4 -4 -4 -4 -4 -4 -4 -4 -4 -4 -4 -3 -3 -3 -3 -3 -3 -3 -4 -4 -4 -5 -5 -5 -5 -5 -6 -5 -5 -6 -6
-4 -4 -4 -4 -4 -4 -4 -4 -4 -4 -4 -4 -4 -4 -4 -4 -4 -4 -4 -4 -4 -4 -4 -5 -5 -5 -4 -4 -3 -3 -3 -3 -3 -3 -4 -4 -4 -5 -5 -6 -6 -6 -6 -6 -5 -5 -6
-5 -4 -4 -4 -4 -4 -4 -4 -4 -4 -4 -4 -4 -4 -4 -5 -5 -5 -5 -5 -5 -5 -5 -5 -5 -5 -5 -4 -4 -3 -3 -4 -3 -4 -4 -4 -5 -6 -6 -6 -6 -6 -6 -6 -5 -5 -6
-5 -5 -5 -4 -4 -4 -4 -4 -4 -4 -4 -4 -4 -5 -5 -5 -5 -5 -5 -5 -6 -6 -6 -6 -5 -5 -5 -4 -4 -4 -4 -4 -4 -4 -4 -5 -6 -6 -6 -6 -6 -6 -6 -6 -6 -5 -5
-5 -5 -5 -5 -5 -5 -5 -4 -4 -4 -4 -5 -5 -5 -5 -6 -6 -6 -6 -6 -6 -6 -6 -6 -5 -5 -5 -5 -5 -4 -4 -4 -4 -4 -4 -5 -6 -7 -7 -7 -7 -7 -6 -6 -6 -5 -6
-5 -5 -5 -5 -5 -5 -5 -5 -5 -5 -5 -5 -5 -6 -6 -6 -7 -7 -7 -7 -7 -7 -7 -6 -6 -5 -5 -5 -5 -5 -5 -5 -5 -5 -6 -6 -7 -7 -7 -8 -8 -8 -8 -7 -7 -6 -6
-6 -5 -5 -5 -5 -5 -5 -5 -5 -5 -5 -6 -6 -6 -7 -7 -7 -8 -8 -8 -8 -7 -7 -6 -6 -6 -6 -6 -6 -5 -5 -5 -5 -6 -7 -7 -8 -7 -7 -7 -9 -9 -9 -8 -8 -7 -7
-6 -6 -6 -6 -6 -6 -6 -6 -6 -5 -6 -6 -6 -7 -7 -7 -8 -8 -8 -8 -8 -7 -7 -7 -6 -6 -7 -6 -6 -6 -6 -6 -6 -6 -7 -8 -8 -8 -8 -8 -9 -9 -9 -9 -9 -8 -8
-6 -6 -6 -6 -6 -6 -6 -6 -6 -6 -6 -6 -7 -7 -7 -7 -8 -9 -8 -8 -8 -8 -8 -7 -8 -8 -7 -7 -7 -7 -7 -7 -7 -7 -8 -9 -9 -9 -9 -10 -10 -10 -10 -9 -9 -9 -9
-7 -7 -7 -6 -6 -6 -6 -6 -6 -6 -6 -7 -7 -7 -8 -8 -8 -8 -8 -8 -8 -8 -8 -8 -9 -9 -8 -8 -8 -8 -8 -8 -8 -8 -9 -9 -9 -9 -10 -11 -10 -11 -10 -10 -10 -10 -9
-7 -7 -7 -7 -7 -7 -6 -6 -6 -6 -7 -7 -7 -8 -8 -8 -8 -8 -8 -8 -8 -8 -9 -9 -9 -9 -9 -8 -8 -8 -8 -8 -9 -9 -9 -9 -9 -10 -11 -11 -11 -11 -11 -10 -11 -10 -10
-8 -8 -7 -7 -7 -7 -7 -7 -7 -7 -7 -7 -7 -8 -8 -8 -8 -8 -8 -8 -8 -8 -9 -9 -10 -10 -10 -10 -10 -10 -9 -9 -10 -10 -10 -11 -11 -11 -11 -11 -11 -12 -11 -11 -11 -11 -10
-7 -8 -8 -8 -7 -7 -7 -7 -7 -7 -7 -7 -8 -8 -8 -8 -8 -8 -8 -8 -8 -9 -10 -10 -10 -10 -10 -11 -11 -11 -11 -11 -10 -11 -11 -11 -12 -12 -12 -12 -12 -12 -11 -12 -12 -11 -10
-8 -7 -8 -8 -8 -8 -7 -7 -8 -7 -7 -8 -8 -8 -8 -8 -8 -9 -9 -9 -8 -8 -9 -9 -10 -10 -11 -11 -11 -12 -12 -12 -12 -12 -12 -12 -12 -12 -13 -12 -13 -12 -12 -12 -12 -11 -11
-8 -8 -8 -8 -8 -8 -8 -8 -8 -8 -8 -8 -8 -8 -8 -8 -9 -9 -9 -9 -9 -9 -9 -10 -10 -11 -12 -12 -12 -11 -12 -12 -12 -12 -13 -13 -13 -13 -13 -13 -13 -13 -12 -12 -12 -11 -11
-9 -9 -9 -9 -9 -9 -8 -8 -8 -8 -8 -8 -8 -8 -9 -9 -9 -9 -9 -9 -9 -9 -10 -10 -11 -12 -13 -12 -12 -13 -12 -12 -12 -12 -13 -13 -13 -13 -13 -13 -13 -13 -13 -12 -12 -12 -11
-10 -10 -10 -10 -10 -10 -9 -9 -9 -8 -8 -9 -9 -9 -9 -9 -10 -10 -10 -9 -9 -10 -10 -10 -11 -13 -13 -13 -13 -12 -12 -13 -12 -12 -13 -13 -14 -13 -14 -14 -14 -13 -13 -13 -12 -12 -12
-11 -11 -11 -11 -11 -11 -11 -10 -9 -9 -9 -9 -9 -9 -9 -9 -10 -10 -10 -10 -10 -10 -10 -10 -11 -13 -14 -13 -13 -13 -12 -12 -13 -13 -13 -13 -14 -14 -14 -14 -14 -14 -13 -13 -12 -12 -12
-12 -12 -12 -12 -12 -11 -11 -11 -10 -10 -10 -10 -9 -9 -9 -10 -10 -10 -10 -10 -10 -10 -10 -11 -12 -13 -14 -14 -13 -13 -13 -13 -13 -14 -14 -14 -14 -14 -14 -14 -14 -14 -13 -13 -12 -12 -12
-12 -13 -13 -13 -13 -13 -12 -12 -11 -11 -10 -10 -10 -10 -10 -10 -11 -11 -11 -11 -11 -11 -11 -12 -13 -14 -14 -14 -14 -13 -13 -13 -14 -14 -14 -14 -15 -15 -15 -15 -14 -14 -14 -13 -13 -13 -12
-13 -14 -14 -14 -14 -14 -13 -12 -12 -11 -11 -11 -11 -11 -10 -10 -11 -11 -11 -11 -11 -11 -12 -13 -14 -14 -14 -14 -14 -14 -13 -13 -14 -14 -14 -15 -15 -15 -15 -15 -14 -14 -13 -13 -13 -13 -13
-13 -14 -14 -15 -15 -14 -14 -13 -13 -12 -12 -11 -11 -11 -11 -11 -11 -12 -12 -12 -12 -12 -13 -14 -14 -14 -14 -14 -14 -14 -14 -14 -14 -14 -15 -15 -15 -15 -15 -16 -14 -14 -14 -14 -13 -13 -13
-13 -14 -14 -15 -15 -15 -15 -14 -13 -12 -12 -12 -12 -12 -12 -12 -13 -13 -12 -12 -13 -13 -13 -15 -15 -15 -15 -15 -15 -14 -14 -14 -14 -15 -15 -15 -15 -15 -15 -15 -14 -13 -14 -13 -14 -14 -13
-14 -14 -15 -15 -15 -16 -15 -15 -14 -13 -13 -13 -12 -12 -13 -13 -14 -14 -14 -13 -13 -14 -15 -15 -15 -15 -15 -15 -14 -13 -14 -14 -14 -14 -14 -14 -14 -15 -15 -15 -14 -13 -14 -14 -13 -13 -13
-14 -14 -15 -16 -16 -16 -16 -15 -15 -15 -14 -14 -14 -14 -15 -15 -15 -15 -15 -15 -15 -15 -15 -16 -15 -15 -15 -15 -14 -13 -13 -14 -14 -14 -15 -15 -15 -14 -14 -14 -14 -15 -14 -13 -13 -13 -13
-14 -14 -15 -15 -17 -16 -16 -17 -16 -16 -17 -16 -16 -16 -15 -16 -16 -16 -15 -15 -15 -15 -15 -15 -15 -15 -15 -15 -14 -14 -14 -14 -14 -13 -14 -14 -14 -14 -14 -14 -14 -14 -14 -13 -13 -13 -13
-15 -15 -15 -15 -16 -16 -16 -16 -16 -16 -16 -16 -16 -16 -15 -15 -15 -15 -16 -15 -15 -15 -15 -15 -15 -15 -15 -15 -14 -14 -14 -14 -14 -14 -14 -14 -14 -14 -14 -14 -14 -13 -13 -13 -13 -13 -12

GFSGBSN_500_temp_123.txt.gz
Temp
-4 -4 -4 -4 -4 -3 -3 -3 -3 -3 -3 -3 -3 -3 -3 -3 -3 -3 -3 -3 -3 -3 -3 -4 -4 -3 -3 -3 -3 -3 -3 -3 -3 -3 -4 -4 -4 -4 -5 -5 -5 -5 -5 -5 -5 -6 -6
-4 -4 -4 -4 -4 -4 -4 -4 -3 -3 -3 -3 -3 -3 -3 -3 -3 -3 -3 -3 -3 -3 -3 -3 -4 -4 -4 -3 -3 -3 -3 -3 -3 -4 -4 -4 -4 -4 -5 -5 -5 -7 -5 -5 -5 -5 -6
-4 -4 -4 -4 -4 -4 -4 -4 -4 -3 -3 -3 -3 -3 -3 -3 -3 -3 -3 -3 -4 -4 -4 -3 -3 -3 -3 -4 -4 -4 -4 -3 -3 -4 -4 -4 -4 -5 -5 -5 -5 -5 -5 -5 -5 -5 -6
-5 -5 -4 -4 -4 -4 -4 -4 -4 -4 -4 -3 -3 -3 -3 -3 -3 -3 -3 -4 -4 -4 -4 -4 -4 -4 -4 -4 -4 -4 -4 -4 -4 -3 -4 -4 -4 -5 -5 -5 -5 -5 -6 -5 -5 -5 -6
-5 -5 -5 -5 -5 -4 -4 -4 -4 -4 -4 -4 -4 -4 -3 -3 -3 -4 -4 -4 -5 -5 -5 -5 -5 -5 -5 -5 -5 -5 -5 -4 -4 -4 -4 -4 -5 -5 -6 -5 -6 -6 -7 -6 -5 -5 -5
-5 -5 -5 -5 -5 -5 -5 -4 -4 -4 -4 -4 -4 -4 -4 -4 -4 -4 -5 -5 -6 -6 -6 -6 -6 -6 -6 -5 -5 -5 -5 -4 -4 -4 -4 -4 -5 -6 -6 -6 -9 -9 -8 -7 -5 -5 -5
-5 -5 -5 -5 -5 -5 -5 -5 -5 -5 -5 -5 -4 -4 -4 -4 -4 -5 -5 -6 -6 -6 -7 -7 -7 -7 -6 -6 -6 -5 -5 -4 -5 -5 -5 -5 -5 -6 -6 -6 -9 -7 -9 -7 -6 -6 -6
-5 -5 -5 -5 -5 -5 -5 -5 -5 -5 -5 -5 -5 -5 -4 -4 -5 -5 -6 -6 -6 -7 -7 -7 -7 -7 -7 -6 -6 -5 -5 -5 -5 -5 -5 -5 -6 -6 -6 -6 -6 -7 -7 -8 -6 -6 -6
-5 -5 -5 -5 -5 -5 -5 -5 -5 -5 -5 -5 -5 -5 -5 -5 -5 -6 -6 -7 -7 -8 -8 -7 -7 -7 -7 -6 -6 -5 -5 -5 -5 -6 -6 -6 -8 -6 -5 -6 -7 -7 -8 -10 -9 -6 -7
-5 -5 -5 -5 -6 -6 -6 -5 -5 -5 -5 -5 -6 -6 -5 -5 -5 -6 -6 -7 -7 -7 -8 -7 -7 -7 -7 -7 -6 -6 -6 -6 -6 -6 -6 -7 -6 -6 -6 -7 -7 -8 -8 -8 -7 -7 -8
-6 -6 -6 -6 -6 -6 -6 -6 -6 -6 -6 -6 -6 -6 -6 -6 -6 -6 -7 -7 -8 -8 -10 -8 -8 -8 -8 -8 -7 -7 -6 -6 -6 -6 -7 -8 -6 -6 -6 -7 -7 -8 -8 -7 -7 -8 -9
-6 -6 -6 -6 -6 -6 -6 -6 -6 -6 -6 -6 -6 -6 -6 -6 -6 -7 -7 -7 -8 -8 -10 -8 -8 -8 -8 -8 -7 -7 -7 -6 -6 -7 -7 -6 -6 -6 -7 -7 -7 -8 -7 -8 -9 -10 -10
-6 -6 -6 -6 -6 -6 -6 -7 -7 -7 -6 -6 -6 -6 -6 -6 -6 -7 -7 -7 -8 -8 -8 -8 -8 -8 -8 -8 -8 -7 -7 -7 -7 -8 -8 -7 -7 -7 -7 -7 -7 -8 -9 -10 -10 -10 -9
-7 -7 -7 -7 -7 -7 -7 -7 -7 -7 -7 -7 -7 -7 -7 -7 -7 -7 -7 -7 -7 -8 -8 -8 -8 -8 -9 -8 -8 -8 -8 -8 -8 -8 -11 -10 -10 -8 -8 -8 -9 -8 -9 -10 -9 -8 -9
-8 -8 -8 -8 -8 -7 -7 -7 -7 -7 -7 -7 -7 -7 -7 -7 -7 -7 -7 -7 -8 -8 -9 -8 -8 -9 -10 -9 -9 -9 -9 -12 -11 -9 -10 -11 -11 -8 -8 -8 -9 -11 -10 -11 -10 -9 -9
-9 -9 -9 -9 -9 -9 -9 -9 -8 -8 -8 -8 -8 -8 -8 -7 -8 -7 -7 -8 -8 -8 -8 -8 -9 -10 -12 -13 -10 -9 -12 -10 -9 -9 -9 -10 -10 -11 -10 -9 -9 -10 -10 -10 -11 -10 -10
-10 -10 -10 -10 -9 -9 -9 -9 -9 -9 -9 -9 -8 -8 -8 -8 -8 -8 -8 -9 -8 -8 -9 -9 -10 -11 -12 -12 -10 -13 -12 -10 -10 -9 -10 -10 -10 -12 -11 -10 -11 -12 -11 -10 -10 -10 -10
-10 -10 -10 -11 -11 -10 -10 -10 -10 -10 -10 -10 -10 -9 -9 -8 -8 -8 -8 -9 -8 -9 -9 -9 -9 -10 -11 -11 -11 -11 -12 -13 -9 -10 -10 -11 -10 -12 -12 -12 -12 -12 -10 -12 -11 -10 -10
-10 -10 -11 -11 -11 -11 -10 -11 -10 -10 -10 -10 -11 -11 -10 -9 -9 -9 -9 -9 -9 -9 -9 -9 -10 -10 -10 -11 -11 -11 -11 -9 -10 -10 -10 -10 -11 -12 -13 -12 -12 -12 -12 -12 -11 -11 -9
-11 -11 -11 -11 -11 -11 -11 -11 -11 -11 -11 -11 -11 -11 -11 -10 -10 -10 -9 -10 -9 -10 -10 -10 -10 -11 -10 -11 -11 -11 -11 -10 -11 -11 -11 -11 -11 -11 -12 -12 -12 -12 -11 -11 -12 -11 -10
-11 -11 -11 -12 -11 -11 -11 -11 -11 -12 -12 -12 -12 -11 -10 -11 -11 -10 -11 -10 -10 -10 -10 -11 -11 -12 -11 -12 -14 -12 -11 -12 -11 -11 -11 -11 -11 -12 -12 -11 -13 -13 -11 -12 -12 -12 -11
-11 -11 -12 -12 -12 -12 -11 -11 -12 -12 -13 -13 -12 -12 -11 -11 -11 -11 -11 -11 -10 -11 -11 -11 -11 -12 -13 -14 -14 -14 -14 -12 -12 -12 -12 -12 -12 -12 -13 -13 -13 -14 -13 -11 -11 -11 -12
-12 -12 -12 -12 -12 -12 -12 -12 -12 -12 -13 -13 -12 -12 -12 -12 -13 -12 -12 -11 -11 -11 -14 -12 -12 -13 -14 -14 -14 -14 -13 -13 -13 -12 -12 -12 -13 -15 -14 -14 -14 -14 -14 -14 -14 -13 -12
-12 -12 -13 -12 -12 -13 -12 -12 -13 -14 -14 -13 -13 -13 -13 -12 -14 -13 -13 -12 -12 -12 -13 -14 -13 -14 -14 -14 -14 -13 -14 -13 -12 -12 -13 -13 -13 -13 -13 -14 -14 -14 -13 -14 -13 -13 -11
-13 -13 -13 -13 -13 -13 -13 -13 -13 -14 -14 -14 -14 -13 -13 -13 -13 -13 -12 -12 -12 -13 -12 -12 -15 -15 -15 -14 -14 -14 -14 -13 -13 -13 -13 -13 -13 -13 -15 -14 -14 -15 -14 -14 -15 -13 -13
-13 -14 -13 -13 -14 -13 -13 -13 -14 -14 -14 -15 -14 -14 -14 -13 -13 -13 -12 -12 -13 -13 -13 -13 -13 -12 -14 -15 -15 -15 -15 -14 -15 -13 -13 -13 -13 -13 -14 -14 -13 -13 -14 -14 -13 -15 -13
-13 -14 -14 -14 -14 -14 -14 -14 -14 -15 -15 -15 -15 -14 -14 -14 -13 -13 -12 -12 -14 -14 -13 -14 -13 -13 -14 -15 -15 -15 -14 -14 -14 -14 -14 -14 -13 -13 -15 -15 -13 -14 -14 -14 -14 -14 -12
-14 -14 -14 -14 -14 -14 -14 -14 -14 -15 -15 -16 -16 -16 -15 -15 -14 -14 -13 -13 -13 -14 -15 -15 -14 -14 -15 -15 -15 -15 -14 -15 -13 -13 -13 -13 -15 -15 -14 -14 -14 -14 -13 -13 -13 -13 -10
-14 -14 -14 -15 -14 -14 -14 -14 -14 -15 -16 -16 -16 -16 -16 -16 -15 -15 -14 -13 -13 -15 -15 -15 -15 -15 -15 -15 -15 -14 -14 -15 -14 -15 -13 -13 -14 -13 -14 -14 -13 -13 -13 -13 -13 -13 -13